Year,Month,Day,Hour,Minute,Value (Times are PST for temperature in C)
2011,09,24,00,00,15.80
2011,09,24,00,01,15.80
2011,09,24,00,02,15.80
2011,09,24,00,03,15.70
2011,09,24,00,04,15.70
2011,09,24,00,05,15.70
2011,09,24,00,06,15.70
2011,09,24,00,07,15.70
2011,09,24,00,08,15.60
2011,09,24,00,09,15.60
2011,09,24,00,10,15.60
2011,09,24,00,11,15.60
2011,09,24,00,12,15.60
2011,09,24,00,13,15.50
2011,09,24,00,14,15.50
2011,09,24,00,15,15.50
2011,09,24,00,16,15.40
2011,09,24,00,17,15.40
2011,09,24,00,18,15.40
2011,09,24,00,19,15.40
2011,09,24,00,20,15.40
2011,09,24,00,21,15.40
2011,09,24,00,22,15.40
2011,09,24,00,23,15.40
2011,09,24,00,24,15.40
2011,09,24,00,25,15.30
2011,09,24,00,26,15.30
2011,09,24,00,27,15.30
2011,09,24,00,28,15.30
2011,09,24,00,29,15.30
2011,09,24,00,30,15.30
2011,09,24,00,31,15.30
2011,09,24,00,32,15.30
2011,09,24,00,33,15.30
2011,09,24,00,34,15.30
2011,09,24,00,35,15.30
2011,09,24,00,36,15.30
2011,09,24,00,37,15.40
2011,09,24,00,38,15.40
2011,09,24,00,39,15.50
2011,09,24,00,40,15.50
2011,09,24,00,41,15.60
2011,09,24,00,42,15.60
2011,09,24,00,43,15.70
2011,09,24,00,44,15.70
2011,09,24,00,45,15.70
2011,09,24,00,46,15.70
2011,09,24,00,47,15.70
2011,09,24,00,48,15.70
2011,09,24,00,49,15.60
2011,09,24,00,50,15.60
2011,09,24,00,51,15.60
2011,09,24,00,52,15.50
2011,09,24,00,53,15.50
2011,09,24,00,54,15.40
2011,09,24,00,55,15.40
2011,09,24,00,56,15.30
2011,09,24,00,57,15.30
2011,09,24,00,58,15.20
2011,09,24,00,59,15.20
2011,09,24,01,00,15.20
2011,09,24,01,01,15.10
2011,09,24,01,02,15.10
2011,09,24,01,03,15.10
2011,09,24,01,04,15.00
2011,09,24,01,05,15.00
2011,09,24,01,06,15.00
2011,09,24,01,07,15.00
2011,09,24,01,08,15.00
2011,09,24,01,09,14.90
2011,09,24,01,10,14.90
2011,09,24,01,11,14.90
2011,09,24,01,12,14.90
2011,09,24,01,13,14.90
2011,09,24,01,14,14.90
2011,09,24,01,15,14.90
2011,09,24,01,16,14.90
2011,09,24,01,17,14.90
2011,09,24,01,18,14.90
2011,09,24,01,19,14.90
2011,09,24,01,20,14.80
2011,09,24,01,21,14.80
2011,09,24,01,22,14.80
2011,09,24,01,23,14.80
2011,09,24,01,24,14.80
2011,09,24,01,25,14.80
2011,09,24,01,26,14.80
2011,09,24,01,27,14.90
2011,09,24,01,28,14.90
2011,09,24,01,29,15.00
2011,09,24,01,30,15.00
2011,09,24,01,31,15.00
2011,09,24,01,32,15.00
2011,09,24,01,33,14.90
2011,09,24,01,34,14.90
2011,09,24,01,35,14.90
2011,09,24,01,36,14.90
2011,09,24,01,37,14.90
2011,09,24,01,38,14.90
2011,09,24,01,39,14.90
2011,09,24,01,40,14.90
2011,09,24,01,41,14.80
2011,09,24,01,42,14.80
2011,09,24,01,43,14.80
2011,09,24,01,44,14.80
2011,09,24,01,45,14.80
2011,09,24,01,46,14.70
2011,09,24,01,47,14.70
2011,09,24,01,48,14.70
2011,09,24,01,49,14.60
2011,09,24,01,50,14.60
2011,09,24,01,51,14.60
2011,09,24,01,52,14.60
2011,09,24,01,53,14.60
2011,09,24,01,54,14.50
2011,09,24,01,55,14.50
2011,09,24,01,56,14.50
2011,09,24,01,57,14.50
2011,09,24,01,58,14.50
2011,09,24,01,59,14.50
2011,09,24,02,00,14.40
2011,09,24,02,01,14.40
2011,09,24,02,02,14.40
2011,09,24,02,03,14.40
2011,09,24,02,04,14.40
2011,09,24,02,05,14.40
2011,09,24,02,06,14.40
2011,09,24,02,07,14.40
2011,09,24,02,08,14.40
2011,09,24,02,09,14.30
2011,09,24,02,10,14.30
2011,09,24,02,11,14.30
2011,09,24,02,12,14.30
2011,09,24,02,13,14.30
2011,09,24,02,14,14.30
2011,09,24,02,15,14.30
2011,09,24,02,16,14.30
2011,09,24,02,17,14.30
2011,09,24,02,18,14.30
2011,09,24,02,19,14.30
2011,09,24,02,20,14.20
2011,09,24,02,21,14.20
2011,09,24,02,22,14.20
2011,09,24,02,23,14.20
2011,09,24,02,24,14.20
2011,09,24,02,25,14.20
2011,09,24,02,26,14.10
2011,09,24,02,27,14.10
2011,09,24,02,28,14.10
2011,09,24,02,29,14.10
2011,09,24,02,30,14.10
2011,09,24,02,31,14.10
2011,09,24,02,32,14.20
2011,09,24,02,33,14.20
2011,09,24,02,34,14.20
2011,09,24,02,35,14.20
2011,09,24,02,36,14.20
2011,09,24,02,37,14.20
2011,09,24,02,38,14.20
2011,09,24,02,39,14.20
2011,09,24,02,40,14.20
2011,09,24,02,41,14.20
2011,09,24,02,42,14.20
2011,09,24,02,43,14.20
2011,09,24,02,44,14.20
2011,09,24,02,45,14.20
2011,09,24,02,46,14.20
2011,09,24,02,47,14.20
2011,09,24,02,48,14.20
2011,09,24,02,49,14.20
2011,09,24,02,50,14.20
2011,09,24,02,51,14.20
2011,09,24,02,52,14.20
2011,09,24,02,53,14.20
2011,09,24,02,54,14.20
2011,09,24,02,55,14.20
2011,09,24,02,56,14.20
2011,09,24,02,57,14.20
2011,09,24,02,58,14.10
2011,09,24,02,59,14.10
2011,09,24,03,00,14.00
2011,09,24,03,01,14.00
2011,09,24,03,02,14.00
2011,09,24,03,03,13.90
2011,09,24,03,04,13.90
2011,09,24,03,05,13.90
2011,09,24,03,06,13.80
2011,09,24,03,07,13.80
2011,09,24,03,08,13.80
2011,09,24,03,09,13.80
2011,09,24,03,10,13.80
2011,09,24,03,11,13.70
2011,09,24,03,12,13.70
2011,09,24,03,13,13.70
2011,09,24,03,14,13.70
2011,09,24,03,15,13.70
2011,09,24,03,16,13.70
2011,09,24,03,17,13.70
2011,09,24,03,18,13.70
2011,09,24,03,19,13.70
2011,09,24,03,20,13.70
2011,09,24,03,21,13.60
2011,09,24,03,22,13.60
2011,09,24,03,23,13.60
2011,09,24,03,24,13.60
2011,09,24,03,25,13.60
2011,09,24,03,26,13.60
2011,09,24,03,27,13.60
2011,09,24,03,28,13.60
2011,09,24,03,29,13.50
2011,09,24,03,30,13.50
2011,09,24,03,31,13.50
2011,09,24,03,32,13.40
2011,09,24,03,33,13.40
2011,09,24,03,34,13.40
2011,09,24,03,35,13.40
2011,09,24,03,36,13.40
2011,09,24,03,37,13.40
2011,09,24,03,38,13.30
2011,09,24,03,39,13.30
2011,09,24,03,40,13.30
2011,09,24,03,41,13.30
2011,09,24,03,42,13.30
2011,09,24,03,43,13.30
2011,09,24,03,44,13.30
2011,09,24,03,45,13.30
2011,09,24,03,46,13.30
2011,09,24,03,47,13.30
2011,09,24,03,48,13.20
2011,09,24,03,49,13.20
2011,09,24,03,50,13.20
2011,09,24,03,51,13.20
2011,09,24,03,52,13.20
2011,09,24,03,53,13.20
2011,09,24,03,54,13.20
2011,09,24,03,55,13.10
2011,09,24,03,56,13.10
2011,09,24,03,57,13.10
2011,09,24,03,58,13.10
2011,09,24,03,59,13.10
2011,09,24,04,00,13.10
2011,09,24,04,01,13.10
2011,09,24,04,02,13.10
2011,09,24,04,03,13.10
2011,09,24,04,04,13.10
2011,09,24,04,05,13.10
2011,09,24,04,06,13.10
2011,09,24,04,07,13.10
2011,09,24,04,08,13.10
2011,09,24,04,09,13.10
2011,09,24,04,10,13.10
2011,09,24,04,11,13.10
2011,09,24,04,12,13.00
2011,09,24,04,13,13.00
2011,09,24,04,14,13.00
2011,09,24,04,15,12.90
2011,09,24,04,16,12.90
2011,09,24,04,17,12.90
2011,09,24,04,18,12.90
2011,09,24,04,19,12.90
2011,09,24,04,20,12.80
2011,09,24,04,21,12.80
2011,09,24,04,22,12.80
2011,09,24,04,23,12.80
2011,09,24,04,24,12.80
2011,09,24,04,25,12.80
2011,09,24,04,26,12.80
2011,09,24,04,27,12.80
2011,09,24,04,28,12.80
2011,09,24,04,29,12.80
2011,09,24,04,30,12.70
2011,09,24,04,31,12.70
2011,09,24,04,32,12.70
2011,09,24,04,33,12.70
2011,09,24,04,34,12.70
2011,09,24,04,35,12.70
2011,09,24,04,36,12.70
2011,09,24,04,37,12.70
2011,09,24,04,38,12.70
2011,09,24,04,39,12.70
2011,09,24,04,40,12.70
2011,09,24,04,41,12.70
2011,09,24,04,42,12.70
2011,09,24,04,43,12.70
2011,09,24,04,44,12.70
2011,09,24,04,45,12.70
2011,09,24,04,46,12.70
2011,09,24,04,47,12.70
2011,09,24,04,48,12.60
2011,09,24,04,49,12.60
2011,09,24,04,50,12.60
2011,09,24,04,51,12.60
2011,09,24,04,52,12.60
2011,09,24,04,53,12.60
2011,09,24,04,54,12.60
2011,09,24,04,55,12.60
2011,09,24,04,56,12.60
2011,09,24,04,57,12.60
2011,09,24,04,58,12.60
2011,09,24,04,59,12.60
2011,09,24,05,00,12.60
2011,09,24,05,01,12.60
2011,09,24,05,02,12.60
2011,09,24,05,03,12.60
2011,09,24,05,04,12.50
2011,09,24,05,05,12.50
2011,09,24,05,06,12.50
2011,09,24,05,07,12.50
2011,09,24,05,08,12.50
2011,09,24,05,09,12.50
2011,09,24,05,10,12.50
2011,09,24,05,11,12.40
2011,09,24,05,12,12.40
2011,09,24,05,13,12.40
2011,09,24,05,14,12.40
2011,09,24,05,15,12.40
2011,09,24,05,16,12.40
2011,09,24,05,17,12.40
2011,09,24,05,18,12.40
2011,09,24,05,19,12.40
2011,09,24,05,20,12.40
2011,09,24,05,21,12.30
2011,09,24,05,22,12.30
2011,09,24,05,23,12.30
2011,09,24,05,24,12.30
2011,09,24,05,25,12.30
2011,09,24,05,26,12.30
2011,09,24,05,27,12.30
2011,09,24,05,28,12.30
2011,09,24,05,29,12.30
2011,09,24,05,30,12.30
2011,09,24,05,31,12.30
2011,09,24,05,32,12.20
2011,09,24,05,33,12.20
2011,09,24,05,34,12.20
2011,09,24,05,35,12.20
2011,09,24,05,36,12.20
2011,09,24,05,37,12.20
2011,09,24,05,38,12.20
2011,09,24,05,39,12.20
2011,09,24,05,40,12.20
2011,09,24,05,41,12.10
2011,09,24,05,42,12.10
2011,09,24,05,43,12.10
2011,09,24,05,44,12.10
2011,09,24,05,45,12.10
2011,09,24,05,46,12.10
2011,09,24,05,47,12.10
2011,09,24,05,48,12.10
2011,09,24,05,49,12.10
2011,09,24,05,50,12.10
2011,09,24,05,51,12.00
2011,09,24,05,52,12.00
2011,09,24,05,53,12.00
2011,09,24,05,54,12.00
2011,09,24,05,55,12.00
2011,09,24,05,56,12.00
2011,09,24,05,57,12.00
2011,09,24,05,58,12.00
2011,09,24,05,59,11.90
2011,09,24,06,00,11.90
2011,09,24,06,01,11.90
2011,09,24,06,02,11.90
2011,09,24,06,03,11.90
2011,09,24,06,04,11.90
2011,09,24,06,05,11.90
2011,09,24,06,06,11.90
2011,09,24,06,07,11.90
2011,09,24,06,08,11.90
2011,09,24,06,09,11.90
2011,09,24,06,10,11.90
2011,09,24,06,11,11.90
2011,09,24,06,12,11.90
2011,09,24,06,13,11.90
2011,09,24,06,14,11.90
2011,09,24,06,15,11.90
2011,09,24,06,16,11.90
2011,09,24,06,17,11.90
2011,09,24,06,18,11.90
2011,09,24,06,19,11.90
2011,09,24,06,20,11.90
2011,09,24,06,21,11.90
2011,09,24,06,22,11.90
2011,09,24,06,23,11.90
2011,09,24,06,24,11.90
2011,09,24,06,25,11.90
2011,09,24,06,26,12.00
2011,09,24,06,27,12.00
2011,09,24,06,28,12.00
2011,09,24,06,29,12.00
2011,09,24,06,30,12.00
2011,09,24,06,31,12.00
2011,09,24,06,32,12.00
2011,09,24,06,33,12.00
2011,09,24,06,34,12.10
2011,09,24,06,35,12.10
2011,09,24,06,36,12.10
2011,09,24,06,37,12.10
2011,09,24,06,38,12.10
2011,09,24,06,39,12.10
2011,09,24,06,40,12.20
2011,09,24,06,41,12.20
2011,09,24,06,42,12.20
2011,09,24,06,43,12.20
2011,09,24,06,44,12.20
2011,09,24,06,45,12.20
2011,09,24,06,46,12.20
2011,09,24,06,47,12.20
2011,09,24,06,48,12.20
2011,09,24,06,49,12.20
2011,09,24,06,50,12.20
2011,09,24,06,51,12.20
2011,09,24,06,52,12.30
2011,09,24,06,53,12.30
2011,09,24,06,54,12.30
2011,09,24,06,55,12.30
2011,09,24,06,56,12.40
2011,09,24,06,57,12.40
2011,09,24,06,58,12.40
2011,09,24,06,59,12.40
2011,09,24,07,00,12.40
2011,09,24,07,01,12.50
2011,09,24,07,02,12.50
2011,09,24,07,03,12.50
2011,09,24,07,04,12.50
2011,09,24,07,05,12.50
2011,09,24,07,06,12.50
2011,09,24,07,07,12.60
2011,09,24,07,08,12.60
2011,09,24,07,09,12.60
2011,09,24,07,10,12.60
2011,09,24,07,11,12.60
2011,09,24,07,12,12.60
2011,09,24,07,13,12.60
2011,09,24,07,14,12.70
2011,09,24,07,15,12.70
2011,09,24,07,16,12.70
2011,09,24,07,17,12.70
2011,09,24,07,18,12.80
2011,09,24,07,19,12.80
2011,09,24,07,20,12.80
2011,09,24,07,21,12.80
2011,09,24,07,22,12.80
2011,09,24,07,23,12.90
2011,09,24,07,24,12.90
2011,09,24,07,25,12.90
2011,09,24,07,26,12.90
2011,09,24,07,27,13.00
2011,09,24,07,28,13.00
2011,09,24,07,29,13.00
2011,09,24,07,30,13.00
2011,09,24,07,31,13.00
2011,09,24,07,32,13.00
2011,09,24,07,33,13.10
2011,09,24,07,34,13.10
2011,09,24,07,35,13.10
2011,09,24,07,36,13.10
2011,09,24,07,37,13.10
2011,09,24,07,38,13.10
2011,09,24,07,39,13.10
2011,09,24,07,40,13.10
2011,09,24,07,41,13.20
2011,09,24,07,42,13.20
2011,09,24,07,43,13.20
2011,09,24,07,44,13.20
2011,09,24,07,45,13.20
2011,09,24,07,46,13.20
2011,09,24,07,47,13.20
2011,09,24,07,48,13.20
2011,09,24,07,49,13.20
2011,09,24,07,50,13.20
2011,09,24,07,51,13.20
2011,09,24,07,52,13.20
2011,09,24,07,53,13.20
2011,09,24,07,54,13.20
2011,09,24,07,55,13.20
2011,09,24,07,56,13.20
2011,09,24,07,57,13.20
2011,09,24,07,58,13.20
2011,09,24,07,59,13.20
2011,09,24,08,00,13.20
2011,09,24,08,01,13.20
2011,09,24,08,02,13.20
2011,09,24,08,03,13.30
2011,09,24,08,04,13.30
2011,09,24,08,05,13.30
2011,09,24,08,06,13.30
2011,09,24,08,07,13.30
2011,09,24,08,08,13.30
2011,09,24,08,09,13.30
2011,09,24,08,10,13.30
2011,09,24,08,11,13.30
2011,09,24,08,12,13.40
2011,09,24,08,13,13.40
2011,09,24,08,14,13.40
2011,09,24,08,15,13.40
2011,09,24,08,16,13.40
2011,09,24,08,17,13.50
2011,09,24,08,18,13.50
2011,09,24,08,19,13.50
2011,09,24,08,20,13.60
2011,09,24,08,21,13.60
2011,09,24,08,22,13.60
2011,09,24,08,23,13.70
2011,09,24,08,24,13.70
2011,09,24,08,25,13.70
2011,09,24,08,26,13.70
2011,09,24,08,27,13.80
2011,09,24,08,28,13.80
2011,09,24,08,29,13.80
2011,09,24,08,30,13.90
2011,09,24,08,31,13.90
2011,09,24,08,32,13.90
2011,09,24,08,33,14.00
2011,09,24,08,34,14.00
2011,09,24,08,35,14.10
2011,09,24,08,36,14.10
2011,09,24,08,37,14.10
2011,09,24,08,38,14.20
2011,09,24,08,39,14.20
2011,09,24,08,40,14.20
2011,09,24,08,41,14.30
2011,09,24,08,42,14.30
2011,09,24,08,43,14.30
2011,09,24,08,44,14.40
2011,09,24,08,45,14.40
2011,09,24,08,46,14.50
2011,09,24,08,47,14.50
2011,09,24,08,48,14.60
2011,09,24,08,49,14.70
2011,09,24,08,50,14.70
2011,09,24,08,51,14.80
2011,09,24,08,52,14.80
2011,09,24,08,53,14.90
2011,09,24,08,54,14.90
2011,09,24,08,55,15.00
2011,09,24,08,56,15.00
2011,09,24,08,57,15.10
2011,09,24,08,58,15.10
2011,09,24,08,59,15.10
2011,09,24,09,00,15.20
2011,09,24,09,01,15.20
2011,09,24,09,02,15.20
2011,09,24,09,03,15.30
2011,09,24,09,04,15.30
2011,09,24,09,05,15.40
2011,09,24,09,06,15.40
2011,09,24,09,07,15.40
2011,09,24,09,08,15.50
2011,09,24,09,09,15.50
2011,09,24,09,10,15.50
2011,09,24,09,11,15.60
2011,09,24,09,12,15.60
2011,09,24,09,13,15.60
2011,09,24,09,14,15.60
2011,09,24,09,15,15.70
2011,09,24,09,16,15.70
2011,09,24,09,17,15.70
2011,09,24,09,18,15.70
2011,09,24,09,19,15.70
2011,09,24,09,20,15.80
2011,09,24,09,21,15.80
2011,09,24,09,22,15.80
2011,09,24,09,23,15.80
2011,09,24,09,24,15.80
2011,09,24,09,25,15.80
2011,09,24,09,26,15.80
2011,09,24,09,27,15.80
2011,09,24,09,28,15.70
2011,09,24,09,29,15.60
2011,09,24,09,30,15.50
2011,09,24,09,31,15.40
2011,09,24,09,32,15.30
2011,09,24,09,33,15.20
2011,09,24,09,34,15.20
2011,09,24,09,35,15.10
2011,09,24,09,36,15.10
2011,09,24,09,37,15.10
2011,09,24,09,38,15.10
2011,09,24,09,39,15.10
2011,09,24,09,40,15.10
2011,09,24,09,41,15.10
2011,09,24,09,42,15.10
2011,09,24,09,43,15.10
2011,09,24,09,44,15.20
2011,09,24,09,45,15.20
2011,09,24,09,46,15.20
2011,09,24,09,47,15.20
2011,09,24,09,48,15.30
2011,09,24,09,49,15.30
2011,09,24,09,50,15.30
2011,09,24,09,51,15.30
2011,09,24,09,52,15.40
2011,09,24,09,53,15.40
2011,09,24,09,54,15.40
2011,09,24,09,55,15.50
2011,09,24,09,56,15.50
2011,09,24,09,57,15.60
2011,09,24,09,58,15.60
2011,09,24,09,59,15.70
2011,09,24,10,00,15.70
2011,09,24,10,01,15.70
2011,09,24,10,02,15.70
2011,09,24,10,03,15.70
2011,09,24,10,04,15.80
2011,09,24,10,05,15.80
2011,09,24,10,06,15.80
2011,09,24,10,07,15.80
2011,09,24,10,08,15.80
2011,09,24,10,09,15.80
2011,09,24,10,10,15.90
2011,09,24,10,11,15.90
2011,09,24,10,12,15.90
2011,09,24,10,13,15.90
2011,09,24,10,14,16.00
2011,09,24,10,15,16.00
2011,09,24,10,16,16.10
2011,09,24,10,17,16.10
2011,09,24,10,18,16.20
2011,09,24,10,19,16.20
2011,09,24,10,20,16.20
2011,09,24,10,21,16.20
2011,09,24,10,22,16.20
2011,09,24,10,23,16.30
2011,09,24,10,24,16.30
2011,09,24,10,25,16.30
2011,09,24,10,26,16.40
2011,09,24,10,27,16.40
2011,09,24,10,28,16.40
2011,09,24,10,29,16.40
2011,09,24,10,30,16.40
2011,09,24,10,31,16.50
2011,09,24,10,32,16.60
2011,09,24,10,33,16.70
2011,09,24,10,34,16.70
2011,09,24,10,35,16.70
2011,09,24,10,36,16.80
2011,09,24,10,37,16.80
2011,09,24,10,38,16.90
2011,09,24,10,39,16.90
2011,09,24,10,40,16.90
2011,09,24,10,41,17.00
2011,09,24,10,42,17.00
2011,09,24,10,43,17.10
2011,09,24,10,44,17.10
2011,09,24,10,45,17.20
2011,09,24,10,46,17.30
2011,09,24,10,47,17.30
2011,09,24,10,48,17.40
2011,09,24,10,49,17.50
2011,09,24,10,50,17.50
2011,09,24,10,51,17.60
2011,09,24,10,52,17.70
2011,09,24,10,53,17.80
2011,09,24,10,54,17.80
2011,09,24,10,55,17.90
2011,09,24,10,56,18.00
2011,09,24,10,57,18.10
2011,09,24,10,58,18.10
2011,09,24,10,59,18.20
2011,09,24,11,00,18.30
2011,09,24,11,01,18.30
2011,09,24,11,02,18.30
2011,09,24,11,03,18.40
2011,09,24,11,04,18.40
2011,09,24,11,05,18.50
2011,09,24,11,06,18.50
2011,09,24,11,07,18.60
2011,09,24,11,08,18.60
2011,09,24,11,09,18.60
2011,09,24,11,10,18.60
2011,09,24,11,11,18.70
2011,09,24,11,12,18.70
2011,09,24,11,13,18.80
2011,09,24,11,14,18.80
2011,09,24,11,15,18.90
2011,09,24,11,16,18.90
2011,09,24,11,17,19.00
2011,09,24,11,18,19.00
2011,09,24,11,19,19.10
2011,09,24,11,20,19.10
2011,09,24,11,21,19.10
2011,09,24,11,22,19.20
2011,09,24,11,23,19.20
2011,09,24,11,24,19.30
2011,09,24,11,25,19.30
2011,09,24,11,26,19.30
2011,09,24,11,27,19.30
2011,09,24,11,28,19.30
2011,09,24,11,29,19.30
2011,09,24,11,30,19.20
2011,09,24,11,31,19.20
2011,09,24,11,32,19.20
2011,09,24,11,33,19.20
2011,09,24,11,34,19.10
2011,09,24,11,35,19.10
2011,09,24,11,36,19.10
2011,09,24,11,37,19.10
2011,09,24,11,38,19.10
2011,09,24,11,39,19.10
2011,09,24,11,40,19.10
2011,09,24,11,41,19.10
2011,09,24,11,42,19.10
2011,09,24,11,43,19.10
2011,09,24,11,44,19.10
2011,09,24,11,45,19.10
2011,09,24,11,46,19.10
2011,09,24,11,47,19.10
2011,09,24,11,48,19.10
2011,09,24,11,49,19.10
2011,09,24,11,50,19.20
2011,09,24,11,51,19.20
2011,09,24,11,52,19.20
2011,09,24,11,53,19.20
2011,09,24,11,54,19.30
2011,09,24,11,55,19.30
2011,09,24,11,56,19.30
2011,09,24,11,57,19.40
2011,09,24,11,58,19.50
2011,09,24,11,59,19.60
2011,09,24,12,00,19.70
2011,09,24,12,01,19.70
2011,09,24,12,02,19.70
2011,09,24,12,03,19.70
2011,09,24,12,04,19.70
2011,09,24,12,05,19.80
2011,09,24,12,06,19.80
2011,09,24,12,07,19.80
2011,09,24,12,08,19.80
2011,09,24,12,09,19.90
2011,09,24,12,10,19.80
2011,09,24,12,11,19.80
2011,09,24,12,12,19.80
2011,09,24,12,13,19.80
2011,09,24,12,14,19.70
2011,09,24,12,15,19.70
2011,09,24,12,16,19.70
2011,09,24,12,17,19.70
2011,09,24,12,18,19.70
2011,09,24,12,19,19.60
2011,09,24,12,20,19.60
2011,09,24,12,21,19.50
2011,09,24,12,22,19.40
2011,09,24,12,23,19.40
2011,09,24,12,24,19.30
2011,09,24,12,25,19.30
2011,09,24,12,26,19.20
2011,09,24,12,27,19.20
2011,09,24,12,28,19.20
2011,09,24,12,29,19.10
2011,09,24,12,30,19.10
2011,09,24,12,31,19.00
2011,09,24,12,32,19.00
2011,09,24,12,33,18.90
2011,09,24,12,34,18.90
2011,09,24,12,35,18.90
2011,09,24,12,36,18.90
2011,09,24,12,37,18.90
2011,09,24,12,38,18.80
2011,09,24,12,39,18.80
2011,09,24,12,40,18.80
2011,09,24,12,41,18.70
2011,09,24,12,42,18.70
2011,09,24,12,43,18.60
2011,09,24,12,44,18.60
2011,09,24,12,45,18.60
2011,09,24,12,46,18.60
2011,09,24,12,47,18.60
2011,09,24,12,48,18.60
2011,09,24,12,49,18.60
2011,09,24,12,50,18.60
2011,09,24,12,51,18.60
2011,09,24,12,52,18.60
2011,09,24,12,53,18.60
2011,09,24,12,54,18.60
2011,09,24,12,55,18.60
2011,09,24,12,56,18.70
2011,09,24,12,57,18.70
2011,09,24,12,58,18.70
2011,09,24,12,59,18.80
2011,09,24,13,00,18.80
2011,09,24,13,01,18.90
2011,09,24,13,02,18.90
2011,09,24,13,03,18.90
2011,09,24,13,04,19.00
2011,09,24,13,05,19.00
2011,09,24,13,06,19.10
2011,09,24,13,07,19.10
2011,09,24,13,08,19.10
2011,09,24,13,09,19.00
2011,09,24,13,10,19.00
2011,09,24,13,11,18.90
2011,09,24,13,12,18.90
2011,09,24,13,13,18.90
2011,09,24,13,14,18.80
2011,09,24,13,15,18.80
2011,09,24,13,16,18.80
2011,09,24,13,17,18.80
2011,09,24,13,18,18.80
2011,09,24,13,19,18.80
2011,09,24,13,20,18.90
2011,09,24,13,21,18.90
2011,09,24,13,22,19.00
2011,09,24,13,23,19.10
2011,09,24,13,24,19.20
2011,09,24,13,25,19.30
2011,09,24,13,26,19.30
2011,09,24,13,27,19.40
2011,09,24,13,28,19.40
2011,09,24,13,29,19.50
2011,09,24,13,30,19.50
2011,09,24,13,31,19.50
2011,09,24,13,32,19.40
2011,09,24,13,33,19.40
2011,09,24,13,34,19.40
2011,09,24,13,35,19.40
2011,09,24,13,36,19.30
2011,09,24,13,37,19.30
2011,09,24,13,38,19.30
2011,09,24,13,39,19.30
2011,09,24,13,40,19.30
2011,09,24,13,41,19.30
2011,09,24,13,42,19.20
2011,09,24,13,43,19.20
2011,09,24,13,44,19.20
2011,09,24,13,45,19.10
2011,09,24,13,46,19.10
2011,09,24,13,47,19.10
2011,09,24,13,48,19.10
2011,09,24,13,49,19.10
2011,09,24,13,50,19.10
2011,09,24,13,51,19.10
2011,09,24,13,52,19.10
2011,09,24,13,53,19.10
2011,09,24,13,54,19.10
2011,09,24,13,55,19.10
2011,09,24,13,56,19.10
2011,09,24,13,57,19.00
2011,09,24,13,58,19.00
2011,09,24,13,59,19.00
2011,09,24,14,00,19.00
2011,09,24,14,01,19.10
2011,09,24,14,02,19.10
2011,09,24,14,03,19.20
2011,09,24,14,04,19.20
2011,09,24,14,05,19.20
2011,09,24,14,06,19.20
2011,09,24,14,07,19.20
2011,09,24,14,08,19.30
2011,09,24,14,09,19.30
2011,09,24,14,10,19.40
2011,09,24,14,11,19.40
2011,09,24,14,12,19.40
2011,09,24,14,13,19.50
2011,09,24,14,14,19.50
2011,09,24,14,15,19.60
2011,09,24,14,16,19.60
2011,09,24,14,17,19.60
2011,09,24,14,18,19.60
2011,09,24,14,19,19.70
2011,09,24,14,20,19.70
2011,09,24,14,21,19.70
2011,09,24,14,22,19.80
2011,09,24,14,23,19.90
2011,09,24,14,24,20.00
2011,09,24,14,25,20.10
2011,09,24,14,26,20.20
2011,09,24,14,27,20.30
2011,09,24,14,28,20.30
2011,09,24,14,29,20.40
2011,09,24,14,30,20.50
2011,09,24,14,31,20.60
2011,09,24,14,32,20.70
2011,09,24,14,33,20.80
2011,09,24,14,34,20.80
2011,09,24,14,35,20.80
2011,09,24,14,36,20.80
2011,09,24,14,37,20.80
2011,09,24,14,38,20.80
2011,09,24,14,39,20.80
2011,09,24,14,40,20.80
2011,09,24,14,41,20.80
2011,09,24,14,42,20.80
2011,09,24,14,43,20.80
2011,09,24,14,44,20.80
2011,09,24,14,45,20.80
2011,09,24,14,46,20.80
2011,09,24,14,47,20.80
2011,09,24,14,48,20.80
2011,09,24,14,49,20.90
2011,09,24,14,50,20.90
2011,09,24,14,51,20.90
2011,09,24,14,52,20.90
2011,09,24,14,53,20.90
2011,09,24,14,54,20.90
2011,09,24,14,55,20.90
2011,09,24,14,56,20.80
2011,09,24,14,57,20.80
2011,09,24,14,58,20.80
2011,09,24,14,59,20.80
2011,09,24,15,00,20.70
2011,09,24,15,01,20.70
2011,09,24,15,02,20.60
2011,09,24,15,03,20.50
2011,09,24,15,04,20.50
2011,09,24,15,05,20.40
2011,09,24,15,06,20.30
2011,09,24,15,07,20.30
2011,09,24,15,08,20.20
2011,09,24,15,09,20.20
2011,09,24,15,10,20.20
2011,09,24,15,11,20.10
2011,09,24,15,12,20.10
2011,09,24,15,13,20.00
2011,09,24,15,14,20.00
2011,09,24,15,15,19.90
2011,09,24,15,16,19.90
2011,09,24,15,17,19.90
2011,09,24,15,18,19.80
2011,09,24,15,19,19.80
2011,09,24,15,20,19.80
2011,09,24,15,21,19.80
2011,09,24,15,22,19.80
2011,09,24,15,23,19.80
2011,09,24,15,24,19.80
2011,09,24,15,25,19.80
2011,09,24,15,26,19.90
2011,09,24,15,27,19.90
2011,09,24,15,28,19.90
2011,09,24,15,29,19.90
2011,09,24,15,30,19.90
2011,09,24,15,31,19.90
2011,09,24,15,32,19.90
2011,09,24,15,33,19.90
2011,09,24,15,34,19.90
2011,09,24,15,35,19.90
2011,09,24,15,36,19.80
2011,09,24,15,37,19.80
2011,09,24,15,38,19.70
2011,09,24,15,39,19.60
2011,09,24,15,40,19.60
2011,09,24,15,41,19.50
2011,09,24,15,42,19.50
2011,09,24,15,43,19.50
2011,09,24,15,44,19.40
2011,09,24,15,45,19.40
2011,09,24,15,46,19.40
2011,09,24,15,47,19.40
2011,09,24,15,48,19.40
2011,09,24,15,49,19.30
2011,09,24,15,50,19.30
2011,09,24,15,51,19.30
2011,09,24,15,52,19.30
2011,09,24,15,53,19.30
2011,09,24,15,54,19.30
2011,09,24,15,55,19.40
2011,09,24,15,56,19.40
2011,09,24,15,57,19.40
2011,09,24,15,58,19.40
2011,09,24,15,59,19.40
2011,09,24,16,00,19.40
2011,09,24,16,01,19.50
2011,09,24,16,02,19.40
2011,09,24,16,03,19.40
2011,09,24,16,04,19.50
2011,09,24,16,05,19.50
2011,09,24,16,06,19.50
2011,09,24,16,07,19.50
2011,09,24,16,08,19.50
2011,09,24,16,09,19.50
2011,09,24,16,10,19.50
2011,09,24,16,11,19.50
2011,09,24,16,12,19.50
2011,09,24,16,13,19.40
2011,09,24,16,14,19.40
2011,09,24,16,15,19.40
2011,09,24,16,16,19.30
2011,09,24,16,17,19.20
2011,09,24,16,18,19.20
2011,09,24,16,19,19.20
2011,09,24,16,20,19.20
2011,09,24,16,21,19.10
2011,09,24,16,22,19.10
2011,09,24,16,23,19.00
2011,09,24,16,24,19.00
2011,09,24,16,25,18.90
2011,09,24,16,26,18.90
2011,09,24,16,27,18.90
2011,09,24,16,28,18.90
2011,09,24,16,29,18.80
2011,09,24,16,30,18.80
2011,09,24,16,31,18.80
2011,09,24,16,32,18.80
2011,09,24,16,33,18.80
2011,09,24,16,34,18.80
2011,09,24,16,35,18.80
2011,09,24,16,36,18.80
2011,09,24,16,37,18.90
2011,09,24,16,38,18.90
2011,09,24,16,39,19.00
2011,09,24,16,40,19.00
2011,09,24,16,41,19.00
2011,09,24,16,42,19.10
2011,09,24,16,43,19.10
2011,09,24,16,44,19.10
2011,09,24,16,45,19.10
2011,09,24,16,46,19.10
2011,09,24,16,47,19.10
2011,09,24,16,48,19.20
2011,09,24,16,49,19.20
2011,09,24,16,50,19.20
2011,09,24,16,51,19.30
2011,09,24,16,52,19.30
2011,09,24,16,53,19.30
2011,09,24,16,54,19.30
2011,09,24,16,55,19.30
2011,09,24,16,56,19.30
2011,09,24,16,57,19.30
2011,09,24,16,58,19.30
2011,09,24,16,59,19.30
2011,09,24,17,00,19.40
2011,09,24,17,01,19.40
2011,09,24,17,02,19.40
2011,09,24,17,03,19.40
2011,09,24,17,04,19.40
2011,09,24,17,05,19.30
2011,09,24,17,06,19.30
2011,09,24,17,07,19.30
2011,09,24,17,08,19.30
2011,09,24,17,09,19.30
2011,09,24,17,10,19.30
2011,09,24,17,11,19.30
2011,09,24,17,12,19.30
2011,09,24,17,13,19.20
2011,09,24,17,14,19.20
2011,09,24,17,15,19.20
2011,09,24,17,16,19.10
2011,09,24,17,17,19.10
2011,09,24,17,18,19.10
2011,09,24,17,19,19.10